Regional Weather Roundup
Issued by NWS

Home | Current Version | Previous Version | Text Only | Print | Product List | Glossary On
Versions: 1 2 3 4 5 6 7 8 9 10 11 12 13 14 15 16 17 18 19 20 21 22 23 24 25 26 27 28 29 30 31 32 33 34 35 36 37 38 39 40 41 42 43 44 45 46 47 48 49 50
000
ASUS43 KMKX 310611
RWRWI

WISCONSIN REGIONAL WEATHER ROUNDUP
NATIONAL WEATHER SERVICE MILWAUKEE/SULLIVAN WI
100 AM CDT WED AUG 31 2016

NOTE: "FAIR" INDICATES FEW OR NO CLOUDS BELOW 12,000 FEET WITH NO
SIGNIFICANT WEATHER AND/OR OBSTRUCTIONS TO VISIBILITY.

WIZ001-002-006>008-014>016-023>028-310700-
NORTHWEST WISCONSIN

CITY           SKY/WX    TMP DP  RH WIND       PRES   REMARKS
SUPERIOR ARPT  FAIR      48  48 100 CALM      30.18S
6HR MIN TEMP:  47; 6HR MAX TEMP:  70;

ASHLAND        FAIR      57  50  77 NW7       30.16R
6HR MIN TEMP:  52; 6HR MAX TEMP:  71;

HAYWARD        FAIR      50  48  93 CALM      30.18S
6HR MIN TEMP:  50; 6HR MAX TEMP:  73;

SIREN          FAIR      53  52  95 CALM      30.20R
6HR MIN TEMP:  53; 6HR MAX TEMP:  72;

CUMBERLAND     FAIR      55  54  94 N3        30.19R
RICE LAKE      FAIR      53  52  95 CALM      30.20R FOG
6HR MIN TEMP:  52; 6HR MAX TEMP:  71;

CHETEK         NOT AVBL
LADYSMITH      FAIR      57  53  86 N3        30.18S
6HR MIN TEMP:  56; 6HR MAX TEMP:  71;

EAU CLAIRE     FAIR      55  53  93 CALM      30.15S
6HR MIN TEMP:  55; 6HR MAX TEMP:  75;

MENOMONIE      FAIR      58  57  95 CALM      30.18R
6HR MIN TEMP:  58; 6HR MAX TEMP:  75;

NEW RICHMOND   FAIR      56  56  98 CALM      30.19R
6HR MIN TEMP:  56; 6HR MAX TEMP:  72;

OSCEOLA        FAIR      56  56 100 CALM      30.22R
6HR MIN TEMP:  56; 6HR MAX TEMP:  73;

$$

WIZ003>005-009-010-017-018-310700-
NORTH CENTRAL WISCONSIN

CITY           SKY/WX    TMP DP  RH WIND       PRES   REMARKS
MANITOWISH WTR NOT AVBL
ARBOR VITAE    FAIR      52  50  94 CALM      30.16R
6HR MIN TEMP:  52; 6HR MAX TEMP:  66;

WOODRUFF       FAIR      52  50  94 CALM      30.16R
6HR MIN TEMP:  52; 6HR MAX TEMP:  66;

RHINELANDER    FAIR      49  48  97 CALM      30.17R
6HR MIN TEMP:  49; 6HR MAX TEMP:  71;

EAGLE RIVER    FAIR      49  49 100 CALM      30.16R FOG
6HR MIN TEMP:  47; 6HR MAX TEMP:  68;

LAND O LAKES   FAIR      46  46 100 CALM      30.17R
6HR MIN TEMP:  46; 6HR MAX TEMP:  67;

PHILLIPS       FAIR      52  52 100 CALM      30.16S
6HR MIN TEMP:  51; 6HR MAX TEMP:  70;

TOMAHAWK       FAIR      46  45  96 CALM      30.17R
6HR MIN TEMP:  46; 6HR MAX TEMP:  71;

MEDFORD        FAIR      49  49 100 CALM      30.16R
6HR MIN TEMP:  49; 6HR MAX TEMP:  70;

MERRILL        FAIR      50  49  97 CALM      30.17R
6HR MIN TEMP:  50; 6HR MAX TEMP:  73;

$$

WIZ029-030-035-036-043>047-310700-
CENTRAL WISCONSIN

CITY           SKY/WX    TMP DP  RH WIND       PRES   REMARKS
WAUSAU         FAIR      57  50  77 CALM      30.14R
6HR MIN TEMP:  57; 6HR MAX TEMP:  75;

MOSINEE        FAIR      57  52  82 NE3       30.16S
MARSHFIELD     FAIR      60  51  72 CALM      30.16R
6HR MIN TEMP:  60; 6HR MAX TEMP:  74;

STEVENS POINT  FAIR      57  51  80 CALM      30.16R
6HR MIN TEMP:  57; 6HR MAX TEMP:  74;

WAUPACA        FAIR      65  57  77 N5        30.14R
6HR MIN TEMP:  65; 6HR MAX TEMP:  82;

WAUTOMA        FAIR      65  58  78 N7        30.13R
6HR MIN TEMP:  65; 6HR MAX TEMP:  79;

WISC RAPIDS    FAIR      62  54  74 NE6       30.16R
6HR MIN TEMP:  62; 6HR MAX TEMP:  76;

CAMP DOUGLAS   FAIR      61  57  85 N5        30.14R
6HR MIN TEMP:  59; 6HR MAX TEMP:  76;

$$

WIZ011>013-019>022-031-037>040-048>050-310700-
NORTHEAST WISCONSIN

CITY           SKY/WX    TMP DP  RH WIND       PRES   REMARKS
ANTIGO         FAIR      52  50  92 CALM      30.16S
6HR MIN TEMP:  52; 6HR MAX TEMP:  71;

SHAWANO        FAIR      64  58  80 N6        30.13F
6HR MIN TEMP:  64; 6HR MAX TEMP:  79;

OCONTO         NOT AVBL
STURGEON BAY   FAIR      64  54  69 NE8       30.12R
6HR MIN TEMP:  64; 6HR MAX TEMP:  77;

GREEN BAY      FAIR      65  63  93 N9        30.12R
6HR MIN TEMP:  65; 6HR MAX TEMP:  78;

MANITOWOC      FAIR      68  59  73 N7        30.11R
6HR MIN TEMP:  68; 6HR MAX TEMP:  80;

APPLETON       MOCLDY    64  57  77 NE10      30.11R
CLINTONVILLE   FAIR      63  57  82 CALM      30.13S
OSHKOSH        FAIR      68  60  75 N9        30.10R
6HR MIN TEMP:  68; 6HR MAX TEMP:  79;

$$

WIZ032>034-041-042-053>061-310700-
SOUTHWEST WISCONSIN

CITY           SKY/WX    TMP DP  RH WIND       PRES   REMARKS
LA CROSSE      FAIR      63  61  93 NE5       30.14S
6HR MIN TEMP:  63; 6HR MAX TEMP:  77;

SPARTA         FAIR      56  56  99 CALM      30.16R
6HR MIN TEMP:  56; 6HR MAX TEMP:  75;

VIROQUA        FAIR      63  59  89 N7        30.15F
6HR MIN TEMP:  62; 6HR MAX TEMP:  75;

BOSCOBEL       FAIR      64  63  96 CALM      30.13R
6HR MIN TEMP:  64; 6HR MAX TEMP:  78;

PRAIRIE DU CHI FAIR      64  62  91 CALM      30.13R
6HR MIN TEMP:  64; 6HR MAX TEMP:  78;

PLATTEVILLE    FAIR      67  67 100 N6        30.12S
6HR MIN TEMP:  67; 6HR MAX TEMP:  76;

$$

WIZ056-057-062-063-064-067-068-310700-
SOUTH CENTRAL WISCONSIN

CITY           SKY/WX    TMP DP  RH WIND       PRES   REMARKS
REEDSBURG      NOT AVBL
BARABOO/DELLS  FAIR      66  60  82 N5        30.12S
6HR MIN TEMP:  65; 6HR MAX TEMP:  75;

LONE ROCK      FAIR      68  62  81 NW6       30.12R
6HR MIN TEMP:  67; 6HR MAX TEMP:  77;

MINERAL POINT  FAIR      68  66  94 N6        30.13R
MADISON        MOCLDY    68  64  87 N6        30.10R
6HR MIN TEMP:  68; 6HR MAX TEMP:  76;

MIDDLETON      CLOUDY    68  66  94 NW5       30.11S
6HR MIN TEMP:  68; 6HR MAX TEMP:  76;

WATERTOWN      FAIR      68  66  93 N5        30.08S
6HR MIN TEMP:  68; 6HR MAX TEMP:  74;

MONROE         FAIR      68  64  88 NW7       30.10S
JANESVILLE     FOG       66  64  94 CALM      30.08S VSB 1/4
$$

WIZ051-052-058>065-066-070>072-310700-
SOUTHEAST WISCONSIN

CITY           SKY/WX    TMP DP  RH WIND       PRES   REMARKS
MILWAUKEE      MOCLDY    73  67  81 NW7       30.05S
6HR MIN TEMP:  72; 6HR MAX TEMP:  75;

WAUKESHA       FAIR      64  64 100 NW3       30.08F
MILWAUKEE/TIMM FAIR      68  63  83 N6        30.07S
RACINE         FAIR      70  67  90 NW8       30.06F
6HR MIN TEMP:  70; 6HR MAX TEMP:  73;

BURLINGTON     FAIR      67  66  98 NW3       30.06S
6HR MIN TEMP:  64; 6HR MAX TEMP:  70;

KENOSHA        FAIR      70  68  93 NW6       30.05F
6HR MIN TEMP:  68; 6HR MAX TEMP:  72;

FOND DU LAC    MOCLDY    70  62  76 N8        30.09R
6HR MIN TEMP:  69; 6HR MAX TEMP:  79;

SHEBOYGAN      MOCLDY    68  61  78 NE15G25   30.09R
6HR MIN TEMP:  68; 6HR MAX TEMP:  77;

WEST BEND      MOCLDY    70  63  78 N8        30.08S
JUNEAU         FAIR      67  64  87 N7        30.10S
6HR MIN TEMP:  67; 6HR MAX TEMP:  77;

$$

LSZ147-162-310700-
LAKE SUPERIOR

STATION/POSITION TIME  TEMP    WIND        PRES    WAVE
                       AIR SEA DIR/SP/G            HT/PER
                 (UTC) (F)     (DEG/KT/KT) (MB)    (FT/S)
W MID LAKE BUOY  0550   67 68  340/ 10/ 14 1019.8R   1
DEVILS ISLAND    0600   65     350/ 12/ 13 1021.1R
SAXON HARBOR     0540   57     200/  3/  6 1020.3S
$$

LMZ867-665-643>646-310700-
LAKE MICHIGAN

STATION/POSITION TIME  TEMP    WIND        PRES    WAVE
                       AIR SEA DIR/SP/G            HT/PER
                 (UTC) (F)     (DEG/KT/KT) (MB)    (FT/S)
CHAMBERS ISLAND  0500   68     350/ 14/ 16 1019.3R
S GREEN BAY BUOY 0500   69 72   50/ 17/ 19 1018.8
N MID LAKE BUOY  0550   67 71  360/ 16/ 19 1018.5R   2/ 4
NORTHPORT PIER   0500C1F1C2F2C3F3C4F4C5F5C6F6C7F7C8M1C9M2Ca!



USA.gov is the U.S. government's official web portal to all federal, state and local government web resources and services.